Weather History for KSJS - March, 2014

Change the Weather History Date:

Friday, March 21, 2014

  Actual Average Record
Temperature  
Mean Temperature 55 °F -  
Max Temperature 69 °F - - ()
Min Temperature 42 °F - - ()
Degree Days  
Heating Degree Days 10    
Growing Degree Days 5 (Base 50)    
Moisture  
Dew Point 23 °F    
Average Humidity 32    
Maximum Humidity 50    
Minimum Humidity 15    
Precipitation  
Precipitation 0.00 in - - ()
Sea Level Pressure  
Sea Level Pressure 30.02 in    
Wind  
Wind Speed 5 mph (SW)    
Max Wind Speed 18 mph    
Max Gust Speed 22 mph    
Visibility 10 miles    
Events      
T = Trace of Precipitation, MM = Missing Value Source: NWS Daily Summary

Daily Weather History Graph

Daily Weather History Graph

Search for Another Location

Airport or City:

Trip Planner

Search our weather history database for the weather conditions in past years. The results will help you decide how hot, cold, wet, or windy it might be!

Date:

Astronomy

Mar. 21, 2014 Rise Set
Actual Time 7:32 AM EDT 7:43 PM EDT
Civil Twilight 7:06 AM EDT 8:09 PM EDT
Nautical Twilight 6:35 AM EDT 8:40 PM EDT
Astronomical Twilight 6:04 AM EDT 9:11 PM EDT
Moon No Moon Rise 10:28 AM EDT (3/21)
Length of Visible Light 13h 03m
Length of Day
12h 10m
Waning Gibbous, 75% of the Moon is Illuminated
Mar 21
Waning Gibbous
Mar 23
Last Quarter
Mar 30
New
Apr 7
First Quarter
Apr 15
Full

Hourly Weather History & Observations

Time (EDT) Temp. Windchill Dew Point Humidity Pressure Visibility Wind Dir Wind Speed Gust Speed Precip Events Conditions
12:15 AM 46.0 °F 44.8 °F 24.3 °F 42% 30.07 in 10.0 mi SSW 3.5 mph - N/A   Clear
12:35 AM 45.7 °F 44.4 °F 24.3 °F 43% 30.07 in 10.0 mi SW 3.5 mph - N/A   Clear
12:55 AM 45.1 °F - 24.6 °F 45% 30.07 in 10.0 mi Calm Calm - N/A   Clear
1:15 AM 44.8 °F - 24.4 °F 45% 30.07 in 10.0 mi Calm Calm - N/A   Clear
1:35 AM 45.3 °F 43.0 °F 24.3 °F 44% 30.07 in 10.0 mi SW 4.6 mph - N/A   Clear
1:55 AM 45.1 °F 42.8 °F 24.3 °F 44% 30.07 in 10.0 mi SW 4.6 mph - N/A   Clear
2:15 AM 44.6 °F 43.1 °F 24.3 °F 45% 30.07 in 10.0 mi SW 3.5 mph - N/A   Clear
2:35 AM 44.2 °F 41.8 °F 24.4 °F 46% 30.07 in 10.0 mi SW 4.6 mph - N/A   Clear
2:55 AM 43.9 °F 42.3 °F 24.3 °F 46% 30.07 in 10.0 mi SW 3.5 mph - N/A   Clear
3:15 AM 43.9 °F - 24.3 °F 46% 30.07 in 10.0 mi Calm Calm - N/A   Clear
3:35 AM 43.9 °F 42.3 °F 24.1 °F 46% 30.07 in 10.0 mi SW 3.5 mph - N/A   Clear
3:55 AM 44.1 °F 42.5 °F 23.9 °F 45% 30.07 in 10.0 mi SSW 3.5 mph - N/A   Clear
4:15 AM 43.7 °F 40.3 °F 24.3 °F 46% 30.06 in 10.0 mi SSW 5.8 mph - N/A   Clear
4:35 AM 43.5 °F 41.9 °F 23.9 °F 46% 30.07 in 10.0 mi SW 3.5 mph - N/A   Clear
4:55 AM 43.2 °F 40.5 °F 23.9 °F 47% 30.07 in 10.0 mi SSW 4.6 mph - N/A   Clear
5:15 AM 43.0 °F 40.3 °F 24.3 °F 48% 30.07 in 10.0 mi SSW 4.6 mph - N/A   Clear
5:35 AM 43.2 °F 40.5 °F 23.9 °F 47% 30.07 in 10.0 mi SSW 4.6 mph - N/A   Clear
5:55 AM 43.0 °F 40.3 °F 23.9 °F 47% 30.06 in 10.0 mi SSW 4.6 mph - N/A   Clear
6:15 AM 43.3 °F 41.7 °F 23.9 °F 46% 30.07 in 10.0 mi SSW 3.5 mph - N/A   Clear
6:35 AM 42.1 °F 40.2 °F 24.6 °F 50% 30.07 in 10.0 mi SSW 3.5 mph - N/A   Clear
6:55 AM 42.8 °F - 24.1 °F 48% 30.07 in 10.0 mi Calm Calm - N/A   Clear
7:15 AM 42.8 °F - 23.9 °F 47% 30.07 in 10.0 mi Calm Calm - N/A   Clear
7:35 AM 42.8 °F 40.1 °F 24.1 °F 48% 30.07 in 10.0 mi SSW 4.6 mph - N/A   Clear
7:55 AM 42.8 °F 40.1 °F 24.3 °F 48% 30.08 in 10.0 mi SSW 4.6 mph - N/A   Clear
8:15 AM 43.0 °F 41.3 °F 24.8 °F 49% 30.08 in 10.0 mi SSW 3.5 mph - N/A   Clear
8:35 AM 44.4 °F 42.9 °F 25.7 °F 48% 30.08 in 10.0 mi SSW 3.5 mph - N/A   Clear
8:55 AM 45.5 °F 41.8 °F 26.4 °F 47% 30.08 in 10.0 mi SSW 6.9 mph - N/A   Clear
9:15 AM 47.3 °F - 26.4 °F 44% 30.08 in 10.0 mi SSW 6.9 mph - N/A   Clear
9:35 AM 48.7 °F - 26.8 °F 43% 30.08 in 10.0 mi SSW 8.1 mph - N/A   Clear
9:55 AM 49.5 °F - 26.6 °F 41% 30.09 in 10.0 mi SW 6.9 mph - N/A   Clear
10:15 AM 51.4 °F - 26.6 °F 38% 30.10 in 10.0 mi SW 8.1 mph - N/A   Clear
10:35 AM 53.2 °F - 26.4 °F 35% 30.10 in 10.0 mi SW 6.9 mph - N/A   Clear
10:55 AM 55.4 °F - 27.1 °F 34% 30.10 in 10.0 mi SW 9.2 mph - N/A   Clear
11:15 AM 56.8 °F - 27.1 °F 32% 30.10 in 10.0 mi WSW 6.9 mph - N/A   Clear
11:35 AM 58.6 °F - 27.5 °F 30% 30.09 in 10.0 mi SW 6.9 mph - N/A   Clear
11:55 AM 59.5 °F - 26.8 °F 29% 30.08 in 10.0 mi West 10.4 mph 16.1 mph N/A   Clear
12:15 PM 61.5 °F - 26.4 °F 26% 30.07 in 10.0 mi SSW 10.4 mph 20.7 mph N/A   Clear
12:35 PM 63.1 °F - 27.3 °F 26% 30.06 in 10.0 mi SW 8.1 mph - N/A   Clear
12:55 PM 63.7 °F - 25.7 °F 24% 30.05 in 10.0 mi SW 9.2 mph 18.4 mph N/A   Clear
1:15 PM 63.9 °F - 25.0 °F 23% 30.04 in 10.0 mi SW 6.9 mph 21.9 mph N/A   Clear
1:35 PM 65.1 °F - 23.9 °F 21% 30.04 in 10.0 mi SSW 13.8 mph 20.7 mph N/A   Clear
1:55 PM 66.2 °F - 24.1 °F 20% 30.03 in 10.0 mi SW 12.7 mph 19.6 mph N/A   Clear
2:15 PM 66.4 °F - 24.8 °F 21% 30.02 in 10.0 mi SSW 12.7 mph 17.3 mph N/A   Clear
2:35 PM 66.4 °F - 24.1 °F 20% 30.01 in 10.0 mi SSW 5.8 mph - N/A   Clear
2:55 PM 67.6 °F - 24.8 °F 20% 30.00 in 10.0 mi South 18.4 mph - N/A   Clear
3:15 PM 68.0 °F - 25.2 °F 20% 29.99 in 10.0 mi South 9.2 mph - N/A   Clear
3:35 PM 68.5 °F - 23.0 °F 18% 29.98 in 10.0 mi WSW 12.7 mph 18.4 mph N/A   Clear
3:55 PM 68.0 °F - 21.6 °F 17% 29.97 in 10.0 mi WSW 9.2 mph - N/A   Clear
4:15 PM 68.9 °F - 21.2 °F 16% 29.97 in 10.0 mi WSW 12.7 mph 18.4 mph N/A   Clear
4:35 PM 68.0 °F - 19.8 °F 16% 29.96 in 10.0 mi WSW 8.1 mph - N/A   Clear
4:55 PM 68.5 °F - 19.4 °F 15% 29.95 in 10.0 mi WSW 8.1 mph 18.4 mph N/A   Clear
5:15 PM 68.2 °F - 19.9 °F 16% 29.94 in 10.0 mi WSW 10.4 mph 16.1 mph N/A   Clear
5:35 PM 68.9 °F - 20.8 °F 16% 29.94 in 10.0 mi SSW 5.8 mph - N/A   Clear
5:55 PM 68.0 °F - 20.3 °F 16% 29.93 in 10.0 mi SSW 8.1 mph - N/A   Clear
6:15 PM 67.1 °F - 19.9 °F 17% 29.93 in 10.0 mi SW 5.8 mph - N/A   Clear
6:35 PM 66.4 °F - 20.5 °F 17% 29.93 in 10.0 mi SW 5.8 mph - N/A   Clear
6:55 PM 65.7 °F - 20.8 °F 18% 29.93 in 10.0 mi SW 5.8 mph - N/A   Clear
7:15 PM 64.8 °F - 21.2 °F 19% 29.93 in 10.0 mi WSW 5.8 mph - N/A   Clear
7:35 PM 64.4 °F - 20.5 °F 19% 29.93 in 10.0 mi SW 6.9 mph - N/A   Clear
7:55 PM 63.5 °F - 20.7 °F 19% 29.93 in 10.0 mi SW 5.8 mph - N/A   Clear
8:15 PM 63.0 °F - 20.3 °F 19% 29.93 in 10.0 mi SW 5.8 mph - N/A   Clear
8:35 PM 62.4 °F - 20.3 °F 20% 29.93 in 10.0 mi SSW 6.9 mph - N/A   Clear
8:55 PM 62.1 °F - 20.3 °F 20% 29.93 in 10.0 mi SSW 6.9 mph - N/A   Clear
9:15 PM 61.9 °F - 19.9 °F 20% 29.93 in 10.0 mi SW 6.9 mph - N/A   Clear
9:35 PM 61.7 °F - 18.9 °F 19% 29.93 in 10.0 mi SSW 8.1 mph - N/A   Clear
9:55 PM 61.2 °F - 18.7 °F 19% 29.93 in 10.0 mi SW 5.8 mph - N/A   Clear
10:15 PM 61.0 °F - 18.5 °F 19% 29.93 in 10.0 mi SSW 6.9 mph - N/A   Clear
10:35 PM 60.3 °F - 18.7 °F 20% 29.93 in 10.0 mi SSW 6.9 mph - N/A   Clear
10:55 PM 60.1 °F - 18.5 °F 20% 29.93 in 10.0 mi SW 6.9 mph - N/A   Clear
11:15 PM 59.5 °F - 18.7 °F 21% 29.93 in 10.0 mi SW 6.9 mph - N/A   Clear
11:35 PM 59.2 °F - 19.2 °F 21% 29.93 in 10.0 mi SW 6.9 mph - N/A   Clear
11:55 PM 59.0 °F - 19.6 °F 22% 29.94 in 10.0 mi SW 5.8 mph - N/A   Clear